Activity Log for Nov, 19 2017

Back to Activity Log Search


Incident Time Nature Address
17F140996 00:07:06 101 OPEN DOOR 45XX REED RD
17F140999 00:10:04 44LP 77XX TRIER RD
17F140997 00:11:18 99 NARCOTICS 10XX BERRY ST E
17F141002 00:11:53 44LP 65XX ST JOE RD
17F140998 00:15:24 48,36 24XX COLISEUM BLVD N
17F141000 00:22:32 40A AUDIBLE 27XX FAIRFIELD AVE
17F141001 00:24:00 50,ATTEMPTED 45XX BOWSER AVE
17F141003 00:43:54 43 DISTURBANCE 81XX BRIDGEWAY CIR
17F141004 00:45:24 46 DOMESTIC 4XX RUDISILL BLVD W & FAIRFIELD AV
17F141005 00:47:36 113 SHOTS FIRED 58XX ST JOE RD & ST JOE CENTER RD
17F141006 00:51:51 30 TRAFFIC STOP 4XX CLINTON ST S & SUPERIOR ST E
17F141007 00:52:22 30 TRAFFIC STOP 39XX WELLS ST & LOUISEDALE DR
17F141009 00:57:03 30 TRAFFIC STOP 31XX I 469 NB
17F141008 01:04:34 1 MEET 7XX TILLMAN RD E
17F141010 01:06:29 44 NUISANCE 75XX BLUFFTON RD
17F141011 01:09:09 44LM 21XX POINT WEST DR
17F141012 01:10:39 101 OPEN DOOR 40XX DANER DR
17F141013 01:23:58 66 MENTALLY ILL 37XX WASHINGTON BLVD E
17F141014 01:33:40 43 DISTURBANCE 3XX BRANDRIFF ST
17F141015 01:43:13 30 TRAFFIC STOP 17XX WASHINGTON BLVD E & ANTHONY B
17F141016 01:44:16 30 TRAFFIC STOP 28XX RUPP DR & COLISEUM BLVD E
17F141017 01:44:50 43 DISTURBANCE 48XX REED ST
17F141020 01:49:19 96 BATTERY 12XX LILLIE ST
17F141018 01:51:11 46,96 27XX COLISEUM BLVD W
17F141019 01:54:28 48,36 76XX SEA ISLE PL & NANTUCKET DR
17F141021 02:01:15 43 DISTURBANCE 29XX LILLIE ST
17F141022 02:08:10 113 SHOTS FIRED 33XX LILLIE ST
17F141023 02:14:23 23,113 31XX WINTER ST
17F141024 02:15:05 102,TX THREATS 17XX SEDDLEMEYER AVE
17F141025 02:24:04 25 PD ACCIDENT PONTIAC TURNAROUND
17F141026 02:24:27 25 PD ACCIDENT 58XX COLDWATER RD & WASHINGTON CEN
17F141027 02:26:20 46,96 7XX DEWALD ST W
17F141030 02:27:37 15 ASSIST 16XX EMERSON AVE
17F141028 02:27:40 44LP 10XX BERRY ST E
17F141029 02:34:52 33,34 40XX HOBSON RD & SANIBEL DR
17F141031 02:41:14 66V MENTAL VIOL 10XX OXFORD ST & SMITH ST
17F141032 02:43:38 103 UNWANTED 28XX DUPONT COMMERCE CT
17F141033 02:44:32 40A AUDIBLE 41XX LIMA RD
17F141034 02:56:15 25 PD ACCIDENT 29XX PONTIAC ST E & ADAMS ST
17F141035 03:02:48 41,36 31XX STATE BLVD E & HOBSON RD
17F141036 03:03:45 65T SUICIDE THR 33XX CHESTNUT ST
17F141037 03:17:22 46 DOMESTIC 27XX NORTHGATE BLVD
17F141038 03:21:21 46,96 12XX RALPH AVE
17F141039 03:26:38 43 DISTURBANCE 20XX WOODHAVEN DR
17F141040 03:40:30 43 DISTURBANCE 3XX WASHINGTON CENTER RD E & COLDW
17F141041 03:52:39 40A AUDIBLE 20XX COLISEUM BLVD N
17F141042 03:55:55 40A AUDIBLE 56XX JEFFERSON BLVD W
17F141043 03:57:30 30 TRAFFIC STOP 14XX COLISEUM BLVD N & LAKE AVE
17F141044 04:13:08 48,36 9XX CONRAD ST
17F141045 04:15:45 43 DISTURBANCE 21XX FOX AVE
17F141046 04:22:59 40A AUDIBLE 20XX JESSIE AVE
17F141047 04:26:21 51IP 103XX MAYSVILLE RD
17F141048 04:33:17 41,36 27XX STATE BLVD E & BEACON ST
17F141049 04:38:07 44LM 76XX MILL RUN DR
17F141050 04:48:07 43 DISTURBANCE 53XX BOWSER AVE
17F141051 04:52:14 33 DISABLED VEH 60XX COVINGTON RD & GETZ RD
17F141052 04:53:35 48 SUSPICIOUS 84XX PEMBER BROOK DR
17F141053 04:59:37 50,ATTEMPTED 4XX BASS ST
17F141054 05:07:41 51 THEFT 44XX GAYWOOD DR
17F141055 05:22:37 129 14XX FISHER ST
17F141056 05:22:45 129 14XX FISHER ST
17F141057 05:23:03 34 TRAFF HAZARD 37XX ANTHONY BLVD S
17F141058 05:26:10 46,96 2XX WASHINGTON CENTER RD W
17F141059 05:29:59 48 SUSPICIOUS 3XX COX DR E
17F141060 05:32:42 63 CONTACT 26XX CLINTON ST N
17F141061 05:37:11 51 THEFT 11XX MICHIGAN AVE
17F141065 05:40:55 44LM 67XX RAMBLEWOOD DR
17F141062 05:47:03 41,36 39XX LAKE AVE & COLISEUM BLVD N
17F141063 05:52:48 102,TX THREATS 32XX FELICIAN ST
17F141064 05:53:20 43 DISTURBANCE 72XX MILL RUN DR
17F141066 06:15:37 113 SHOTS FIRED 37XX SMITH ST
17F141067 06:28:42 43 DISTURBANCE 12XX RALPH AVE
17F141068 06:34:05 25 PD ACCIDENT 83XX LAKESIDE CT
17F141069 06:35:45 40A AUDIBLE 20XX JESSIE AVE
17F141070 06:37:47 50JO 47XX WEATHERSIDE RUN
17F141071 06:55:23 113 SHOTS FIRED 22XX NEW HAVEN AVE
17F141072 07:06:08 46 DOMESTIC 86XX GULF DR
17F141073 07:12:04 63 CONTACT 29XX DREXEL AVE
17F141074 07:21:29 46,96 33XX SCHELE AVE
17F141075 07:30:09 40H HOLDUP ALRM 32XX ILLINOIS RD
17F141076 07:41:33 103 UNWANTED 41XX CLINTON ST N
17F141077 07:51:38 63 CONTACT 30XX COLISEUM BLVD W
17F141078 08:02:42 48 SUSPICIOUS 42XX LAFAYETTE ST S & MCKINNIE AVE
17F141079 08:10:40 65T SUICIDE THR 22XX BOWSER AVE
17F141080 08:12:26 911 HANG UP 3XX SUPERIOR ST W
17F141081 08:28:20 23,35 VAND VEH 12XX TENNESSEE AVE
17F141082 08:29:15 30 TRAFFIC STOP 5XX BERRY ST W & FULTON ST
17F141083 08:36:24 66 MENTALLY ILL 6XX FRY ST
17F141084 08:51:54 911 HANG UP 4XX BRACKENRIDGE ST W
17F141085 09:01:03 33,34 43XX LIMA RD & COLISEUM BLVD W
17F141086 09:03:40 EMS 13XX PINEHURST DR
17F141087 09:05:20 102 THREATS 32XX DIPLOMAT DR
17F141088 09:07:29 34 TRAFF HAZARD 1XX DOUGLAS AVE E & CLINTON ST S
17F141089 09:15:38 30 TRAFFIC STOP 7XX BROADWAY & BERRY ST W
17F141090 09:19:21 25HS HIT SKIP 22XX COLISEUM BLVD N & STATE BLVD
17F141091 09:25:46 25HS HIT SKIP 32XX PAULDING RD E
17F141092 09:27:34 51 THEFT 79XX DECATUR RD
17F141093 09:36:34 30 TRAFFIC STOP 21XX ENGLE RD & BLUFFTON RD
17F141094 09:39:37 22I JUV INVEST 19XX DUPONT RD W
17F141095 09:46:46 43 DISTURBANCE 30XX COLISEUM BLVD W
17F141096 09:47:29 103 UNWANTED 3XX JEFFERSON BLVD E
17F141097 09:48:36 44LM 40XX BOWSER AVE
17F141098 09:51:56 37 PARKING VIOL 20XX HARRISON ST S
17F141099 09:59:11 39JO 33XX OLIVER ST
17F141100 10:10:00 40A AUDIBLE 56XX QUAIL CANYON DR
17F141101 10:13:10 33,34 101XX LIMA RD
17F141102 10:13:39 25HS HIT SKIP 2XX EDGEWOOD AVE & LIMA RD
17F141103 10:13:53 48 SUSPICIOUS 11XX CLINTON ST S
17F141104 10:20:56 96JO 79XX DECATUR RD
17F141105 10:22:46 50IP BURG I/P 14XX HARRISON ST N
17F141107 10:23:50 EMS 14XX MELROSE AVE
17F141106 10:24:41 30 TRAFFIC STOP 48XX FAIRFIELD AVE
17F141108 10:26:30 43 DISTURBANCE 55XX HOAGLAND AVE
17F141109 10:26:52 46 DOMESTIC 33XX CHEVIOT DR
17F141110 10:30:58 40A AUDIBLE 57XX RIVER RUN TRL
17F141111 10:36:53 25 PD ACCIDENT 66XX REED RD & EVARD RD
17F141112 10:46:27 51,35 34XX PINEY CREEK DR
17F141113 10:53:08 25 PD ACCIDENT 88XX LIMA RD & WALLEN RD W
17F141114 10:59:19 25 PD ACCIDENT 44XX KENILWORTH ST
17F141115 11:17:43 129 9XX LIBRARY PLAZA
17F141116 11:30:53 22RN RUNAWAY 7XX WILDWOOD AVE W
17F141117 11:38:00 40A AUDIBLE 15XX DIRECTORS ROW
17F141118 11:40:48 48 SUSPICIOUS 22XX FLORIDA DR
17F141119 11:42:37 19 ESCORT 29XX WAYNE TRACE
17F141121 11:51:55 37 PARKING VIOL 21XX WELLS ST
17F141120 11:52:18 30 TRAFFIC STOP 31XX HANNA ST S & DALMAN AVE
17F141122 11:53:02 46 DOMESTIC 27XX NORTHGATE BLVD
17F141123 11:58:51 46 DOMESTIC 52XX CAMELOT DR
17F141124 12:00:36 33J LOCKED OUT 17XX CALIFORNIA AVE
17F141125 12:01:46 129 8XX ECKART ST
17F141127 12:02:14 25HS HIT SKIP 29XX LILLIE ST
17F141126 12:02:34 129 13XX MCCULLOCH ST
17F141128 12:06:25 108 FOLLOWUP 10XX COLISEUM BLVD W
17F141129 12:15:43 30 TRAFFIC STOP 49XX LIMA RD
17F141130 12:17:19 63 CONTACT 6XX HARRISON ST S
17F141131 12:20:33 14S SERVING WAR 30XX COLISEUM BLVD W
17F141133 12:22:41 48,36 24XX HOBSON RD
17F141132 12:23:18 30 TRAFFIC STOP 3XX CREIGHTON AVE W
17F141134 12:27:20 33,34 41XX COVENTRY LN & ABOITE CENTER R
17F141135 12:31:40 30 TRAFFIC STOP 8XX LEY RD & LIMA RD
17F141136 12:34:34 15 ASSIST 45XX WINSTON DR
17F141140 12:34:52 37 PARKING VIOL 51XX REED ST & FAIRFAX AVE E
17F141137 12:35:12 40A AUDIBLE 40XX PIPER DR
17F141141 12:35:29 39R STOLEN RECO 36XX HOLTON AVE & GRIER ST
17F141138 12:35:44 40A AUDIBLE 80XX BLUFFTON RD
17F141139 12:35:48 43 DISTURBANCE 34XX CHEVIOT DR
17F141142 12:36:31 37 PARKING VIOL 52XX DIAL DR
17F141143 12:42:21 30 TRAFFIC STOP 3XX WASHINGTON CENTER RD W & INDUS
17F141144 12:47:17 48 SUSPICIOUS 13XX FLETCHER AVE
17F141145 12:54:57 30 TRAFFIC STOP 4XX LUDWIG RD W
17F141146 12:58:20 30 TRAFFIC STOP 7XX COOK RD W & HONEYWELL DR
17F141147 12:58:27 11 PICK UP PRIS 7XX BROADWAY
17F141148 13:00:48 22RN RUNAWAY 79XX WELSHIRE BLVD
17F141149 13:03:07 66 MENTALLY ILL 15XX CHEROKEE RD
17F141150 13:06:31 63Z ZACH CHECK 49XX HOLTON AVE
17F141151 13:07:31 25 PD ACCIDENT 49XX CLINTON ST N & WAKEFIELD AVE
17F141152 13:09:06 37 PARKING VIOL 9XX CREIGHTON AVE W
17F141153 13:10:48 46 DOMESTIC 36XX HOLTON AVE & GRIER ST
17F141154 13:15:15 51JO 42XX COLDWATER RD
17F141159 13:19:11 63 CONTACT 10XX THIRD ST
17F141156 13:19:23 23JO 7XX COLISEUM BLVD E
17F141155 13:19:52 48,36 12XX PONTIAC ST E & BOWSER AVE
17F141163 13:22:19 99 NARCOTICS 9XX WASHINGTON BLVD E
17F141157 13:22:35 15 ASSIST 44XX SOUTHPARK DR
17F141158 13:23:43 129 63XX TOLBERT CT
17F141160 13:28:16 30 TRAFFIC STOP 12XX STOPHLET ST & NELSON ST
17F141161 13:28:58 111P DEER PERMI 5XX SHADYHURST DR
17F141162 13:29:16 30 TRAFFIC STOP 63XX COLDWATER RD & I 69 SB
17F141164 13:33:21 30 TRAFFIC STOP 32XX ALEXANDER ST
17F141165 13:39:15 43 DISTURBANCE 7XX BROADWAY
17F141167 13:45:49 40A AUDIBLE 40XX CLINTON ST N
17F141166 13:48:00 30 TRAFFIC STOP 22XX PONTIAC ST E & ABBOTT ST
17F141168 13:50:01 25HS HIT SKIP 8XX LEY RD & LIMA RD
17F141173 13:53:47 46,96 3XX BROYLES BLVD N
17F141169 13:58:52 43 DISTURBANCE 54XX MONARCH DR
17F141172 14:00:07 16,97 41XX LAFAYETTE ST S
17F141170 14:02:38 41,36 37XX ENGLE RD
17F141179 14:03:58 46 DOMESTIC 77XX PINEDALE DR
17F141175 14:05:23 44LM 35XX PORTAGE BLVD
17F141171 14:08:58 25 PD ACCIDENT 8XX COLISEUM BLVD E & CLINTON ST N
17F141174 14:11:54 129 48XX ROCKY KNOLL DR
17F141176 14:12:34 46,96 25XX SHADY OAK DR
17F141177 14:13:18 46 DOMESTIC 48XX STATE BLVD E
17F141191 14:16:32 96 BATTERY 7XX BROADWAY
17F141178 14:17:12 33,34 52XX STELLHORN RD
17F141181 14:17:38 43 DISTURBANCE 24XX FAIRFIELD AVE
17F141180 14:18:08 30 TRAFFIC STOP 15XX FAIRFAX AVE E & WINTER ST
17F141187 14:21:43 1 MEET 8XX FULTON ST & WAYNE ST W
17F141183 14:24:41 129 4XX OAKDALE DR W
17F141184 14:25:23 51 THEFT 83XX GRAND FOREST DR
17F141185 14:29:08 22I JUV INVEST 101XX LIMA RD
17F141186 14:30:32 43 DISTURBANCE 2XX COLISEUM BLVD E
17F141189 14:31:11 46 DOMESTIC 53XX CLOVERBROOK DR
17F141188 14:31:18 46 DOMESTIC 35XX MCKINNIE AVE
17F141193 14:32:35 40A AUDIBLE 21XX DUPONT RD E
17F141190 14:33:17 30 TRAFFIC STOP 31XX STATE BLVD E & HOBSON RD
17F141192 14:35:28 41 MAN DOWN 40XX WASHINGTON BLVD E & COLISEUM
17F141195 14:38:38 27 RECKLESS DRI 294XX I 69 NB
17F141194 14:48:20 51 THEFT 76XX MILL RUN DR
17F141248 14:49:06 120 GRABILL 135XX STATE ST
17F141196 14:53:14 43 DISTURBANCE 2XX PETTIT AVE E
17F141197 15:07:04 30 TRAFFIC STOP 52XX ST JOE RD & ACADEMIC PL
17F141198 15:09:27 30 TRAFFIC STOP 58XX VANCE AVE & SOLITUDE PL
17F141199 15:10:04 30 TRAFFIC STOP 2XX PETTIT AVE E
17F141200 15:10:34 46 DOMESTIC 27XX DARLENE DR
17F141201 15:13:47 43 DISTURBANCE 13XX FLETCHER AVE
17F141210 15:16:44 108 FOLLOWUP 32XX DIPLOMAT DR
17F141202 15:17:27 48 SUSPICIOUS 35XX MCKINNIE AVE & WAYNE TRACE
17F141207 15:20:23 22I JUV INVEST 9XX LIBRARY PLAZA
17F141203 15:23:17 41 MAN DOWN 4XX BASS ST & FAIRFIELD AVE
17F141217 15:23:29 102,TX THREATS 53XX GOSHEN RD
17F141205 15:24:08 911 HANG UP 110XX BITTERSWEET LAKE CT
17F141206 15:24:46 51IP 63XX LIMA RD
17F141204 15:25:10 30 TRAFFIC STOP 58XX VANCE AVE & SOLITUDE PL
17F141208 15:28:28 30 TRAFFIC STOP 53XX COLDWATER RD
17F141209 15:30:52 33,34 31XX COLISEUM BLVD E & HOBSON RD
17F141211 15:31:46 51 THEFT 76XX MAEVE DR
17F141213 15:34:54 46,96 75XX IDEAL AVE
17F141212 15:36:20 129 53XX REED ST
17F141215 15:36:23 48 SUSPICIOUS 40XX WAYNE TRACE
17F141214 15:37:16 58 SHOOTING 4XX SUTTON AVE
17F141216 15:43:24 30 TRAFFIC STOP 47XX TRIERWOOD PARK DR & REED RD
17F141218 15:54:50 51 THEFT 63XX MAPLECREST RD
17F141226 16:00:16 102 THREATS 69XX RIVERTON DR
17F141219 16:00:19 30 TRAFFIC STOP 29XX SMITH ST & COLERICK ST
17F141220 16:02:45 66 MENTALLY ILL 44XX WALKERS RIDGE
17F141229 16:05:55 25HS HIT SKIP 21XX TILLMAN RD E
17F141221 16:07:01 25 PD ACCIDENT 37XX WASHINGTON CENTER RD W & HUGU
17F141222 16:12:22 30 TRAFFIC STOP 11XX PONTIAC ST E & OLIVER ST
17F141224 16:14:22 911 HANG UP 88XX VOYAGER DR
17F141223 16:15:22 96JO 5XX RUDISILL BLVD E
17F141225 16:18:53 102,TX THREATS 8XX LEMONWOOD CT
17F141227 16:24:51 16 PICK UP ITEM 101XX OAK TRAIL RD
17F141228 16:27:55 30 TRAFFIC STOP 1XX CREIGHTON AVE E & CALHOUN ST S
17F141230 16:36:34 48 SUSPICIOUS 29XX SMITH ST
17F141231 16:40:38 48 SUSPICIOUS 1XX JEFFERSON BLVD W
17F141232 16:40:47 30 TRAFFIC STOP 28XX WEISSER PARK AVE & MCKEE ST
17F141234 16:44:53 40A AUDIBLE 44XX COLONIAL AVE S
17F141233 16:45:52 63 CONTACT 25XX MINER ST
17F141235 16:49:43 65T SUICIDE THR 44XX WALKERS RIDGE
17F141236 16:56:15 25 PD ACCIDENT 9XX CREIGHTON AVE E & GAY ST
17F141237 17:06:38 30 TRAFFIC STOP 45XX LAFAYETTE ST S & SHERWOOD TER
17F141238 17:07:47 99 NARCOTICS 28XX DEVON DR
17F141239 17:09:53 30 TRAFFIC STOP 1XX CREIGHTON AVE E & CALHOUN ST S
17F141240 17:13:10 46 DOMESTIC 15XX DUPONT RD W
17F141241 17:14:58 48,36 25XX GARDEN PARK DR
17F141243 17:17:34 48 SUSPICIOUS 19XX FOX POINT TRL
17F141242 17:20:56 129 64XX ST JOE RD
17F141244 17:24:54 51 THEFT 33XX PAULDING RD E
17F141246 17:29:37 102 THREATS 7XX JEFFERSON BLVD E
17F141245 17:31:43 96JO 15XX BLUFFTON RD & QUIMBY VILLAGE
17F141249 17:33:31 40A AUDIBLE 80XX ORIOLE AVE
17F141247 17:36:34 25HS HIT SKIP 1XX MURRAY ST
17F141250 17:44:47 30 TRAFFIC STOP 17XX STATE BLVD E & ANTHONY BLVD N
17F141251 17:48:57 40 ALARM 25XX COLISEUM BLVD W
17F141252 17:51:45 46 DOMESTIC 19XX FRANKLIN AVE
17F141257 17:56:16 46 DOMESTIC 86XX TARA CT
17F141254 17:57:29 43 DISTURBANCE 42XX COLDWATER RD
17F141253 17:57:58 30 TRAFFIC STOP 23XX COLISEUM BLVD E & CRESCENT AV
17F141255 17:58:06 25HS HIT SKIP 28XX DUPONT COMMERCE CT
17F141256 18:05:52 30 TRAFFIC STOP 3XX LAWSHE DR & CRESCENT AVE
17F141258 18:06:56 48 SUSPICIOUS 3XX SUPERIOR ST W
17F141260 18:11:40 22N CHILD NEGLE 8XX GRACE AVE
17F141259 18:15:33 48 SUSPICIOUS 67XX SULLIVANS CT
17F141262 18:16:17 25HS HIT SKIP 36XX HANNA ST S
17F141261 18:16:37 129 57XX GATE TREE LN
17F141263 18:23:16 33,34 47XX COLDWATER RD & COLLINS RD E
17F141285 18:29:15 44LM 56XX LE STEELE BLVD
17F141265 18:33:35 43 DISTURBANCE 11XX GOSHEN AVE
17F141290 18:33:56 50 BURGLARY 25XX CAROLINE ST
17F141266 18:34:40 50 BURGLARY 72XX BELLWOOD DR
17F141264 18:35:21 30 TRAFFIC STOP 88XX ST JOE CENTER RD & CHERRY HIL
17F141267 18:40:46 43 DISTURBANCE 64XX COVINGTON RD
17F141268 18:42:56 113 SHOTS FIRED 22XX SHADY BROOK DR
17F141269 18:43:04 43 DISTURBANCE 48XX OLIVER ST
17F141270 18:44:49 25 PD ACCIDENT EXIT 302 SB
17F141271 18:47:06 22I JUV INVEST 17XX OAKLAND ST
17F141280 18:48:09 102 THREATS 44XX OLIVER ST
17F141273 18:53:14 47 REMOVE ITEMS 70XX SWEET GUM CT
17F141277 18:54:15 46 DOMESTIC 29XX LILLIE ST
17F141272 18:54:17 25HS HIT SKIP 15XX WALLEN RD E
17F141275 18:56:34 46 DOMESTIC 98XX STELLHORN RD
17F141274 18:57:33 30 TRAFFIC STOP 43XX MAPLECREST RD & STELLHORN RD
17F141286 18:58:28 33 DISABLED VEH 50XX INDUSTRIAL RD & LEY RD
17F141276 19:01:47 1 MEET 27XX STATE BLVD E
17F141278 19:04:44 26HS PI HITSKIP 76XX SOUTHTOWN XING
17F141279 19:04:46 113 SHOTS FIRED 69XX KOESTER DR
17F141281 19:13:32 25,86 39XX HESSEN CASSEL RD
17F141282 19:16:25 46,96 10XX ROCKHILL ST
17F141283 19:18:33 65A SUICIDE ATT 10XX EDGEWATER AVE
17F141284 19:19:24 43 DISTURBANCE 58XX ST JOE RD & ST JOE CENTER RD
17F141287 19:32:58 46 DOMESTIC 20XX BROOKLYN AVE
17F141288 19:33:23 15 ASSIST 69XX BAER RD
17F141289 19:34:50 66 MENTALLY ILL 3XX JEFFERSON BLVD W & EWING ST
17F141292 19:42:18 63 CONTACT 28XX WITCHWOOD DR
17F141291 19:47:17 48,36 102XX ILLINOIS RD
17F141293 19:51:02 48 SUSPICIOUS 29XX CANTERBURY BLVD
17F141294 20:05:27 63 CONTACT 17XX FOREST VALLEY DR
17F141297 20:09:33 66 MENTALLY ILL 65XX COVINGTON RD
17F141296 20:10:11 48 SUSPICIOUS 9XX WASHINGTON BLVD E
17F141295 20:11:09 30 TRAFFIC STOP 7XX ANTHONY BLVD S & BERRY ST E
17F141298 20:11:54 48 SUSPICIOUS 10XX CALHOUN ST S
17F141302 20:12:18 911 HANG UP 37XX LAFAYETTE ST S
17F141299 20:14:16 48 SUSPICIOUS 70XX KENSINGTON DR W
17F141300 20:15:03 43 DISTURBANCE 35XX IVY LEAGUE DR
17F141328 20:15:49 22RN RUNAWAY 18XX GETZ RD
17F141301 20:17:29 129 45XX PLAZA DR
17F141303 20:18:11 39 STOLEN VEHIC 13XX OXFORD ST
17F141306 20:32:52 33 DISABLED VEH 26XX SCOTT RD S & COVINGTON RD
17F141304 20:32:55 30 TRAFFIC STOP 86XX BLUFFTON RD & AIRPORT EXPRESS
17F141305 20:33:11 30 TRAFFIC STOP 27XX TILLMAN RD E & LEMAR DR
17F141311 20:40:41 102,TX THREATS 50XX DESOTO DR
17F141307 20:41:47 55 FIGHT 28XX PARNELL AVE
17F141308 20:44:03 40A AUDIBLE 62XX LIMA RD
17F141310 20:45:05 43 DISTURBANCE 58XX BUNT DR
17F141309 20:50:13 39R STOLEN RECO 26XX SCHAPER DR
17F141312 20:53:14 26 PI ACCIDENT 2XX WASHINGTON CENTER RD E
17F141313 20:53:18 102,TX THREATS 15XX CASS ST
17F141314 21:00:08 48 SUSPICIOUS 114XX AUBURN RD
17F141315 21:04:29 1 MEET 89XX CLINTON ST N & WALLEN RD E
17F141318 21:05:27 48,35 31XX ANTHONY BLVD S
17F141317 21:06:49 48 SUSPICIOUS 59XX GUILD DR
17F141316 21:07:09 43 DISTURBANCE 37XX WASHINGTON BLVD E
17F141321 21:27:34 23JO 19XX CHARTWELL DR
17F141319 21:27:55 30 TRAFFIC STOP 57XX NORTHRIDGE RD
17F141320 21:28:32 113 SHOTS FIRED 10XX PONTIAC ST E & SMITH ST
17F141322 21:31:21 25 PD ACCIDENT 60XX JEFFERSON BLVD W
17F141337 21:39:42 23,113 26XX WARSAW ST
17F141323 21:40:18 48,36 22XX PACKARD AVE W
17F141324 21:43:58 23JO 19XX CHARTWELL DR
17F141326 21:49:34 65T SUICIDE THR 2XX SUPERIOR ST W
17F141325 21:50:10 46 DOMESTIC 36XX ELMCREST DR
17F141333 21:54:05 63 CONTACT 1XX CREIGHTON AVE E
17F141330 21:56:00 40A AUDIBLE 56XX COLDWATER RD
17F141327 21:56:16 33,34 96XX COVINGTON RD
17F141353 21:56:56 1 MEET 27XX WASHINGTON CENTER RD W
17F141329 22:02:16 30 TRAFFIC STOP 44XX VANCE AVE & KINGSLEY DR
17F141331 22:03:18 46 DOMESTIC 29XX BOWSER AVE
17F141336 22:03:29 51 THEFT 8XX HIGH ST
17F141332 22:06:24 30 TRAFFIC STOP 45XX LIMA RD & DUNN ST
17F141334 22:08:42 30 TRAFFIC STOP 42XX LAFAYETTE ST S & MCKINNIE AVE
17F141335 22:11:28 46 DOMESTIC 2XX CONCORD LN E
17F141338 22:19:51 66 MENTALLY ILL 23XX BOWSER AVE
17F141339 22:20:26 30 TRAFFIC STOP 3XX PETTIT AVE E & LAFAYETTE ST S
17F141340 22:24:18 1 MEET XX MAIN ST E
17F141341 22:31:53 43 DISTURBANCE 8XX RIDGEWOOD DR
17F141342 22:32:56 40A AUDIBLE 51XX COLDWATER RD
17F141343 22:41:16 113 SHOTS FIRED 21XX CASS ST
17F141344 22:42:44 40A AUDIBLE 62XX LIMA RD
17F141345 22:51:42 41,36 4XX RUDISILL BLVD E
17F141347 22:56:00 40A AUDIBLE 62XX LIMA RD
17F141346 22:56:50 40A AUDIBLE 1XX FERNHILL AVE W & LIMA RD
17F141349 22:58:47 62 PARTY ARMED 24XX DREXEL AVE
17F141348 22:59:44 48,36 64XX ST JOE RD
17F141350 23:02:45 33,34 62XX PAULDING RD E & ADAMS CENTER
17F141351 23:03:24 30 TRAFFIC STOP 41XX HOBSON RD & TIMBERHILL DR
17F141352 23:06:04 46 DOMESTIC 8XX HIGH ST
17F141354 23:13:37 30 TRAFFIC STOP 58XX WHEELOCK RD & ST JOE CENTER R
17F141356 23:21:38 48 SUSPICIOUS 6XX LAWTON PL
17F141355 23:22:16 30 TRAFFIC STOP 47XX ST JOE CENTER RD & REED RD
17F141357 23:34:20 42 INTOX PERSON 9XX WASHINGTON BLVD E
17F141358 23:36:13 30 TRAFFIC STOP 19XX BROADWAY & TAYLOR ST
17F141367 23:44:24 1 MEET 34XX WINTER ST & OXFORD ST
17F141360 23:44:40 43 DISTURBANCE 15XX WELLS ST
17F141359 23:44:44 40A AUDIBLE 8XX HOME AVE
17F141361 23:45:52 37 PARKING VIOL 75XX SCARLET CT
17F141362 23:46:18 15,84 ASS URGEN 7XX BROADWAY
17F141365 23:47:26 14 WARRANT 13XX OXFORD ST & ROBINWOOD DR
17F141363 23:51:07 48 SUSPICIOUS 16XX COLISEUM BLVD E & HARRY BAALS
17F141364 23:51:57 15 ASSIST 26XX TRIER RD & COLISEUM BLVD E
17F141366 23:59:04 30 TRAFFIC STOP 14XX COLISEUM BLVD N & LAKE AVE